カタログに戻る

CZ-6A DEB

運用中PO
NORAD 61818·DEBRIS·🇨🇳 China

打ち上げ Aug 6, 2024 から Taiyuan Satellite Launch Center

Loading…

次のパス (今後24時間)

TLE

最新Source: Space-Track

元期: Sep 12, 2026, 01:33 UTC

1 61818U 24140ACJ 26255.06498084  .00009884  00000-0  11563-2 0  9991
2 61818  89.1598 273.9740 0088566 184.2613 175.7869 14.82164140105028

AllMySatでCZ-6A DEBをリアルタイム追跡

Download on the App Store